GFSSE_prec_precacc_105.txt.gz
Total_Precipitation_Accumulation
0.38 0.30 0.26 0.09 0.08 0.07 0.08 0.04 0.02 0.03 0.03 0.04 0.04 0.05 0.11 0.14 0.11 0.09 0.09 0.06 0.05 0.03 0.03 0.06 0.08 0.08 0.05 0.07 0.06 0.05 0.06 0.05 0.07 0.10 0.21 0.20 0.10 0.13 0.12 0.18 0.14 0.24 0.40
0.87 0.59 0.65 0.26 0.08 0.05 0.07 0.07 0.10 0.04 0.05 0.08 0.04 0.06 0.11 0.14 0.06 0.06 0.08 0.17 0.16 0.13 0.08 0.04 0.06 0.12 0.13 0.13 0.10 0.06 0.06 0.05 0.04 0.04 0.10 0.19 0.18 0.11 0.10 0.09 0.13 0.16 0.19
1.19 1.00 0.80 0.68 0.21 0.14 0.32 0.11 0.04 0.04 0.04 0.02 0.02 0.02 0.07 0.05 0.01 0.05 0.17 0.17 0.19 0.11 0.06 0.07 0.16 0.31 0.30 0.22 0.14 0.09 0.08 0.07 0.05 0.03 0.04 0.10 0.25 0.28 0.15 0.10 0.14 0.21 0.18
0.95 1.22 0.91 1.05 1.11 0.51 0.42 0.21 0.14 0.07 0.02 0.00 0.00 0.01 0.01 0.03 0.03 0.02 0.08 0.11 0.08 0.05 0.04 0.07 0.14 0.93 0.71 0.61 0.32 0.14 0.07 0.06 0.04 0.03 0.02 0.08 0.27 0.53 0.35 0.13 0.13 0.16 0.16
0.93 0.58 0.94 1.10 0.97 0.77 0.44 0.26 0.40 0.45 0.31 0.03 0.01 0.03 0.04 0.04 0.04 0.04 0.12 0.06 0.11 0.11 0.07 0.08 0.06 0.67 1.02 0.74 0.45 0.20 0.11 0.10 0.05 0.04 0.03 0.03 0.14 0.65 0.58 0.23 0.16 0.17 0.15
1.21 1.41 2.04 1.78 1.51 0.84 0.62 0.82 1.07 1.04 0.77 0.49 0.20 0.20 0.14 0.16 0.11 0.08 0.04 0.01 0.01 0.03 0.04 0.06 0.06 0.16 0.26 0.53 0.50 0.52 0.25 0.11 0.13 0.08 0.04 0.04 0.06 0.31 0.33 0.19 0.11 0.16 0.13
2.60 2.46 3.18 4.31 3.80 2.88 1.89 1.41 1.42 1.62 1.26 1.09 1.33 1.34 0.90 0.49 0.47 0.21 0.06 0.02 0.02 0.04 0.05 0.04 0.03 0.09 0.32 0.14 0.09 0.20 0.15 0.06 0.09 0.07 0.07 0.26 0.57 0.52 0.29 0.26 0.17 0.11 0.13
6.22 5.28 5.61 6.69 5.82 4.58 3.52 2.31 2.32 2.10 1.74 1.67 1.51 1.97 2.21 0.90 0.84 0.54 0.17 0.07 0.02 0.04 0.06 0.03 0.01 0.01 0.14 0.08 0.02 0.03 0.05 0.07 0.10 0.09 0.24 0.23 0.29 0.19 0.29 0.30 0.18 0.09 0.10
4.44 5.85 6.89 7.53 8.33 7.50 4.24 3.28 3.29 3.28 2.61 2.24 2.09 1.89 2.07 1.41 1.14 0.82 0.30 0.14 0.04 0.01 0.02 0.01 0.01 0.01 0.01 0.01 0.01 0.02 0.03 0.03 0.14 0.21 0.21 0.15 0.12 0.17 0.38 0.32 0.21 0.14 0.10
2.47 3.24 3.59 3.72 7.19 11.78 7.98 5.02 4.13 3.68 3.27 2.35 2.31 1.65 1.10 1.38 1.48 1.33 0.51 0.21 0.06 0.01 0.01 0.00 0.00 0.00 0.00 0.01 0.00 0.00 0.00 0.00 0.01 0.06 0.07 0.11 0.10 0.14 0.35 0.41 0.31 0.21 0.13
2.72 2.37 1.88 2.59 3.36 5.95 9.66 6.50 5.14 4.06 2.62 2.35 1.94 1.46 1.02 0.84 0.83 0.78 0.45 0.26 0.11 0.01 0.00 0.00 0.00 0.00 0.00 0.00 0.00 0.00 0.00 0.00 0.00 0.00 0.00 0.00 0.01 0.04 0.12 0.19 0.20 0.27 0.26
1.93 2.26 1.84 1.27 1.32 1.96 4.35 4.16 4.49 4.52 2.62 2.09 1.58 1.16 1.00 0.78 0.45 0.35 0.24 0.17 0.14 0.01 0.00 0.00 0.00 0.00 0.00 0.00 0.00 0.00 0.00 0.00 0.00 0.00 0.00 0.01 0.01 0.01 0.05 0.16 0.15 0.17 0.22
1.33 1.64 1.27 1.16 0.93 1.08 2.16 1.83 2.29 3.05 3.30 2.23 1.89 1.12 1.11 0.72 0.36 0.35 0.19 0.15 0.11 0.02 0.00 0.00 0.00 0.00 0.00 0.00 0.00 0.00 0.00 0.00 0.00 0.00 0.00 0.00 0.01 0.03 0.07 0.11 0.16 0.19 0.19
0.70 0.89 0.91 0.51 0.66 0.99 0.96 1.12 1.40 1.41 3.03 2.76 2.11 1.53 1.20 0.76 0.30 0.24 0.12 0.03 0.01 0.00 0.00 0.00 0.00 0.00 0.00 0.00 0.00 0.01 0.00 0.00 0.00 0.00 0.00 0.00 0.00 0.00 0.03 0.06 0.13 0.21 0.25
0.73 0.82 0.81 0.67 0.64 0.58 0.37 0.48 1.14 0.94 1.71 2.71 2.09 1.62 1.17 0.62 0.24 0.10 0.04 0.02 0.01 0.00 0.00 0.00 0.00 0.00 0.00 0.00 0.00 0.00 0.00 0.00 0.00 0.00 0.00 0.00 0.00 0.00 0.00 0.01 0.04 0.14 0.28
0.72 0.90 0.66 0.63 0.65 0.53 0.37 0.37 0.83 0.84 0.95 2.02 1.58 1.10 1.21 0.47 0.12 0.11 0.10 0.02 0.00 0.00 0.00 0.00 0.00 0.00 0.00 0.00 0.00 0.00 0.00 0.00 0.00 0.00 0.00 0.00 0.00 0.00 0.00 0.00 0.00 0.05 0.17
0.53 0.60 0.47 0.69 0.73 0.69 0.47 0.54 0.73 0.81 0.83 1.26 1.03 1.00 1.19 0.51 0.24 0.17 0.11 0.04 0.01 0.00 0.00 0.00 0.00 0.00 0.00 0.00 0.00 0.00 0.00 0.00 0.00 0.00 0.00 0.00 0.00 0.00 0.00 0.00 0.00 0.00 0.02
0.20 0.44 0.64 0.86 1.18 1.11 0.46 0.57 0.67 0.71 0.78 1.02 0.84 0.90 1.24 0.57 0.28 0.13 0.07 0.02 0.01 0.00 0.00 0.00 0.00 0.00 0.00 0.00 0.00 0.00 0.00 0.00 0.00 0.00 0.00 0.01 0.02 0.01 0.01 0.01 0.01 0.01 0.01
0.18 0.30 0.59 0.92 1.09 1.33 1.20 1.45 1.20 0.84 0.74 0.81 0.66 0.74 1.26 0.60 0.24 0.09 0.05 0.01 0.00 0.00 0.00 0.00 0.00 0.00 0.00 0.00 0.00 0.00 0.00 0.00 0.00 0.00 0.00 0.00 0.01 0.02 0.04 0.06 0.05 0.03 0.03
0.07 0.29 0.67 1.07 1.58 2.74 1.92 1.09 0.61 0.59 0.63 0.68 0.71 0.60 1.13 0.56 0.14 0.07 0.03 0.03 0.04 0.00 0.00 0.00 0.00 0.00 0.00 0.00 0.00 0.00 0.00 0.00 0.00 0.00 0.00 0.00 0.01 0.01 0.01 0.03 0.05 0.07 0.05
0.16 0.49 0.75 0.83 0.94 0.82 0.38 0.34 0.33 0.45 0.65 0.73 0.82 0.51 0.95 0.64 0.14 0.07 0.01 0.02 0.04 0.00 0.00 0.00 0.00 0.00 0.00 0.00 0.00 0.00 0.00 0.00 0.00 0.00 0.00 0.00 0.01 0.01 0.03 0.04 0.05 0.06 0.10
0.33 0.37 0.23 0.09 0.06 0.10 0.11 0.15 0.16 0.19 0.41 0.47 1.05 0.72 0.71 0.71 0.17 0.08 0.02 0.01 0.04 0.01 0.00 0.00 0.00 0.00 0.00 0.00 0.00 0.01 0.00 0.00 0.00 0.00 0.00 0.01 0.01 0.03 0.06 0.10 0.09 0.11 0.15
0.04 0.10 0.05 0.04 0.03 0.03 0.05 0.09 0.16 0.10 0.18 0.32 1.01 1.03 0.64 0.56 0.29 0.12 0.07 0.01 0.03 0.01 0.01 0.00 0.00 0.00 0.00 0.00 0.00 0.01 0.05 0.06 0.05 0.00 0.00 0.03 0.03 0.02 0.01 0.03 0.08 0.13 0.11
0.06 0.03 0.06 0.10 0.05 0.05 0.02 0.04 0.06 0.08 0.10 0.18 0.42 0.62 0.60 0.39 0.32 0.17 0.10 0.04 0.04 0.03 0.03 0.02 0.02 0.02 0.02 0.02 0.01 0.00 0.03 0.05 0.15 0.13 0.04 0.00 0.01 0.03 0.04 0.08 0.10 0.14 0.17
0.04 0.06 0.10 0.09 0.11 0.12 0.07 0.08 0.09 0.09 0.17 0.19 0.30 0.54 0.50 0.40 0.32 0.30 0.21 0.14 0.10 0.09 0.11 0.10 0.06 0.08 0.09 0.08 0.08 0.05 0.04 0.02 0.04 0.10 0.12 0.06 0.05 0.03 0.02 0.04 0.06 0.09 0.16
0.03 0.03 0.07 0.12 0.16 0.19 0.18 0.14 0.18 0.23 0.16 0.13 0.22 0.56 0.50 0.40 0.27 0.26 0.29 0.25 0.18 0.17 0.21 0.25 0.23 0.16 0.11 0.11 0.14 0.19 0.22 0.25 0.27 0.34 0.33 0.19 0.18 0.12 0.04 0.04 0.04 0.04 0.08

GFSSE_prec_precacc_108.txt.gz
Total_Precipitation_Accumulation
0.38 0.30 0.26 0.09 0.08 0.07 0.08 0.04 0.02 0.03 0.03 0.04 0.04 0.05 0.11 0.14 0.11 0.09 0.09 0.06 0.05 0.03 0.03 0.06 0.08 0.08 0.06 0.07 0.06 0.06 0.07 0.06 0.08 0.11 0.23 0.23 0.11 0.13 0.13 0.19 0.14 0.24 0.42
0.87 0.59 0.65 0.26 0.08 0.05 0.07 0.07 0.10 0.04 0.05 0.08 0.04 0.06 0.11 0.14 0.06 0.06 0.08 0.17 0.16 0.13 0.08 0.04 0.06 0.12 0.15 0.14 0.12 0.11 0.09 0.06 0.05 0.05 0.12 0.22 0.19 0.11 0.10 0.09 0.13 0.17 0.21
1.19 1.00 0.80 0.68 0.21 0.14 0.32 0.11 0.04 0.04 0.04 0.02 0.02 0.02 0.07 0.05 0.01 0.05 0.17 0.17 0.19 0.12 0.06 0.07 0.16 0.33 0.31 0.23 0.16 0.13 0.08 0.07 0.05 0.05 0.06 0.10 0.26 0.29 0.15 0.11 0.16 0.23 0.18
0.95 1.22 0.91 1.05 1.11 0.51 0.42 0.21 0.14 0.07 0.02 0.00 0.01 0.01 0.02 0.03 0.04 0.02 0.08 0.11 0.08 0.06 0.05 0.08 0.16 0.96 0.73 0.62 0.33 0.14 0.07 0.06 0.04 0.03 0.02 0.08 0.27 0.54 0.35 0.13 0.15 0.17 0.17
0.93 0.58 0.94 1.10 0.97 0.77 0.44 0.26 0.40 0.45 0.31 0.04 0.02 0.05 0.05 0.04 0.05 0.06 0.15 0.06 0.11 0.13 0.10 0.11 0.10 0.69 1.03 0.74 0.45 0.20 0.11 0.10 0.05 0.04 0.03 0.04 0.15 0.66 0.58 0.23 0.16 0.17 0.15
1.21 1.41 2.04 1.78 1.51 0.84 0.62 0.82 1.07 1.04 0.77 0.49 0.28 0.38 0.37 0.31 0.26 0.19 0.12 0.05 0.02 0.04 0.06 0.09 0.09 0.17 0.26 0.53 0.50 0.52 0.25 0.11 0.13 0.08 0.04 0.04 0.06 0.31 0.33 0.19 0.12 0.16 0.14
2.60 2.46 3.18 4.31 3.80 2.88 1.89 1.41 1.43 1.62 1.27 1.11 1.44 1.56 1.25 0.77 0.67 0.32 0.12 0.05 0.03 0.05 0.09 0.08 0.04 0.10 0.32 0.14 0.09 0.20 0.15 0.06 0.09 0.07 0.07 0.26 0.57 0.52 0.29 0.26 0.17 0.12 0.13
6.22 5.28 5.61 6.69 5.82 4.58 3.52 2.31 2.32 2.12 1.80 1.76 1.54 2.03 2.41 1.05 0.97 0.70 0.30 0.14 0.07 0.07 0.11 0.06 0.02 0.01 0.14 0.08 0.02 0.03 0.05 0.07 0.10 0.09 0.24 0.23 0.29 0.19 0.29 0.30 0.18 0.10 0.10
4.44 5.85 6.89 7.53 8.33 7.50 4.24 3.28 3.29 3.34 2.84 2.36 2.14 1.92 2.11 1.44 1.22 0.91 0.35 0.22 0.14 0.07 0.08 0.05 0.01 0.01 0.01 0.01 0.01 0.02 0.03 0.03 0.14 0.21 0.21 0.15 0.12 0.17 0.38 0.33 0.21 0.15 0.10
2.47 3.24 3.59 3.72 7.19 11.78 7.98 5.02 4.13 3.77 3.58 2.59 2.38 1.72 1.18 1.41 1.48 1.35 0.52 0.22 0.12 0.08 0.04 0.03 0.00 0.00 0.00 0.01 0.00 0.00 0.00 0.00 0.01 0.06 0.07 0.11 0.10 0.14 0.35 0.42 0.31 0.21 0.14
2.72 2.37 1.88 2.59 3.36 5.95 9.66 6.51 5.16 4.16 2.76 2.54 2.15 1.56 1.07 0.87 0.84 0.78 0.46 0.28 0.15 0.03 0.01 0.00 0.00 0.00 0.00 0.00 0.00 0.00 0.00 0.00 0.00 0.00 0.00 0.01 0.02 0.04 0.12 0.20 0.20 0.27 0.26
1.93 2.26 1.84 1.27 1.32 1.96 4.35 4.16 4.49 4.54 2.68 2.15 1.75 1.25 1.07 0.85 0.47 0.35 0.24 0.18 0.18 0.03 0.00 0.00 0.00 0.00 0.00 0.00 0.00 0.00 0.00 0.00 0.00 0.00 0.00 0.01 0.01 0.01 0.05 0.16 0.15 0.17 0.22
1.33 1.64 1.27 1.16 0.93 1.08 2.16 1.83 2.29 3.05 3.32 2.25 1.91 1.17 1.14 0.75 0.39 0.36 0.19 0.16 0.16 0.04 0.00 0.00 0.00 0.00 0.00 0.00 0.00 0.00 0.00 0.00 0.00 0.00 0.00 0.00 0.02 0.03 0.07 0.11 0.16 0.19 0.19
0.70 0.89 0.91 0.51 0.66 0.99 0.96 1.12 1.40 1.41 3.04 2.77 2.12 1.54 1.22 0.78 0.30 0.24 0.12 0.05 0.02 0.00 0.00 0.00 0.00 0.00 0.00 0.00 0.00 0.01 0.00 0.00 0.00 0.00 0.00 0.00 0.00 0.01 0.03 0.06 0.13 0.21 0.25
0.73 0.82 0.81 0.67 0.64 0.58 0.38 0.48 1.14 0.94 1.72 2.73 2.11 1.64 1.19 0.63 0.26 0.10 0.04 0.03 0.01 0.00 0.00 0.00 0.00 0.00 0.00 0.00 0.00 0.00 0.00 0.00 0.00 0.00 0.00 0.00 0.00 0.00 0.00 0.01 0.04 0.15 0.28
0.72 0.90 0.66 0.63 0.65 0.53 0.37 0.37 0.83 0.85 0.96 2.05 1.63 1.14 1.23 0.48 0.13 0.12 0.10 0.03 0.02 0.00 0.00 0.00 0.00 0.00 0.00 0.00 0.00 0.00 0.00 0.00 0.00 0.00 0.00 0.00 0.00 0.00 0.00 0.00 0.00 0.05 0.17
0.53 0.60 0.47 0.69 0.73 0.69 0.47 0.54 0.73 0.82 0.84 1.28 1.07 1.07 1.23 0.53 0.25 0.17 0.13 0.09 0.02 0.00 0.00 0.00 0.00 0.00 0.00 0.00 0.00 0.00 0.00 0.00 0.00 0.00 0.00 0.00 0.00 0.00 0.00 0.00 0.00 0.00 0.02
0.20 0.44 0.64 0.86 1.18 1.11 0.46 0.57 0.67 0.72 0.78 1.02 0.84 0.95 1.34 0.65 0.31 0.14 0.07 0.05 0.04 0.01 0.00 0.00 0.00 0.00 0.00 0.00 0.00 0.00 0.00 0.00 0.00 0.00 0.00 0.01 0.02 0.01 0.01 0.01 0.01 0.01 0.01
0.18 0.30 0.59 0.92 1.09 1.33 1.20 1.45 1.20 0.84 0.74 0.81 0.66 0.80 1.41 0.81 0.45 0.13 0.06 0.01 0.01 0.01 0.00 0.00 0.00 0.00 0.00 0.00 0.00 0.00 0.00 0.00 0.00 0.00 0.00 0.00 0.01 0.02 0.04 0.06 0.05 0.03 0.03
0.07 0.29 0.67 1.07 1.58 2.74 1.92 1.10 0.62 0.59 0.63 0.68 0.75 0.72 1.27 0.69 0.41 0.23 0.07 0.03 0.05 0.01 0.00 0.00 0.00 0.00 0.00 0.00 0.00 0.00 0.00 0.00 0.00 0.00 0.00 0.00 0.01 0.01 0.01 0.03 0.05 0.07 0.05
0.16 0.49 0.75 0.83 0.94 0.82 0.38 0.34 0.34 0.46 0.65 0.74 0.85 0.62 1.10 0.72 0.23 0.26 0.07 0.02 0.05 0.01 0.00 0.00 0.00 0.00 0.00 0.00 0.00 0.00 0.00 0.00 0.00 0.00 0.00 0.00 0.01 0.01 0.03 0.04 0.05 0.06 0.10
0.33 0.37 0.23 0.09 0.06 0.10 0.11 0.15 0.16 0.19 0.41 0.48 1.07 0.75 0.77 0.79 0.20 0.16 0.05 0.02 0.05 0.01 0.00 0.00 0.00 0.00 0.00 0.00 0.00 0.01 0.00 0.00 0.00 0.00 0.00 0.01 0.01 0.03 0.06 0.10 0.09 0.11 0.15
0.04 0.10 0.05 0.04 0.03 0.03 0.05 0.09 0.16 0.10 0.18 0.33 1.02 1.08 0.72 0.67 0.35 0.13 0.10 0.03 0.03 0.01 0.01 0.00 0.00 0.00 0.00 0.00 0.00 0.01 0.05 0.06 0.05 0.00 0.00 0.03 0.03 0.02 0.01 0.03 0.08 0.13 0.11
0.06 0.03 0.06 0.10 0.05 0.05 0.02 0.04 0.06 0.08 0.10 0.19 0.42 0.66 0.74 0.53 0.40 0.18 0.12 0.05 0.04 0.03 0.03 0.02 0.02 0.02 0.02 0.02 0.01 0.00 0.03 0.05 0.15 0.13 0.04 0.00 0.01 0.03 0.04 0.08 0.10 0.14 0.17
0.04 0.06 0.10 0.09 0.11 0.12 0.07 0.08 0.09 0.09 0.17 0.19 0.30 0.60 0.67 0.68 0.47 0.34 0.23 0.14 0.10 0.09 0.11 0.10 0.06 0.08 0.09 0.08 0.08 0.05 0.04 0.02 0.04 0.10 0.12 0.06 0.05 0.03 0.02 0.04 0.06 0.09 0.16
0.03 0.03 0.07 0.12 0.16 0.19 0.18 0.14 0.18 0.23 0.17 0.14 0.23 0.64 0.73 0.68 0.53 0.39 0.35 0.27 0.18 0.17 0.21 0.25 0.23 0.16 0.11 0.11 0.14 0.19 0.22 0.25 0.27 0.35 0.34 0.20 0.18 0.12 0.04 0.04 0.04 0.04 0.08

GFSSE_prec_precacc_111.txt.gz
Total_Precipitation_Accumulation
0.38 0.30 0.26 0.09 0.09 0.07 0.08 0.04 0.02 0.03 0.03 0.04 0.04 0.05 0.11 0.14 0.11 0.09 0.09 0.06 0.05 0.03 0.03 0.06 0.08 0.08 0.07 0.08 0.07 0.08 0.09 0.08 0.10 0.15 0.29 0.25 0.12 0.13 0.13 0.19 0.14 0.24 0.43
0.87 0.59 0.65 0.26 0.08 0.05 0.07 0.07 0.10 0.04 0.05 0.08 0.04 0.06 0.11 0.14 0.06 0.06 0.08 0.17 0.17 0.14 0.08 0.04 0.06 0.12 0.16 0.15 0.13 0.12 0.10 0.06 0.05 0.07 0.18 0.29 0.21 0.12 0.10 0.09 0.13 0.17 0.22
1.19 1.00 0.80 0.68 0.22 0.14 0.32 0.11 0.04 0.04 0.04 0.02 0.02 0.02 0.07 0.05 0.01 0.05 0.18 0.17 0.19 0.12 0.06 0.07 0.16 0.34 0.31 0.23 0.17 0.16 0.09 0.07 0.05 0.05 0.09 0.11 0.26 0.29 0.15 0.11 0.16 0.24 0.18
0.95 1.22 0.91 1.05 1.11 0.52 0.42 0.21 0.14 0.07 0.02 0.01 0.11 0.10 0.05 0.03 0.04 0.03 0.08 0.12 0.08 0.06 0.05 0.09 0.17 0.97 0.73 0.63 0.33 0.15 0.07 0.06 0.04 0.03 0.02 0.08 0.27 0.55 0.35 0.13 0.16 0.18 0.17
0.93 0.58 0.94 1.10 0.97 0.77 0.44 0.26 0.40 0.45 0.31 0.07 0.06 0.10 0.13 0.08 0.08 0.09 0.16 0.06 0.12 0.13 0.13 0.14 0.13 0.69 1.04 0.79 0.45 0.20 0.11 0.10 0.05 0.04 0.04 0.04 0.16 0.67 0.60 0.24 0.16 0.17 0.15
1.21 1.41 2.04 1.78 1.51 0.84 0.62 0.82 1.07 1.05 0.79 0.49 0.39 0.59 0.67 0.65 0.52 0.46 0.27 0.12 0.12 0.10 0.09 0.12 0.11 0.18 0.27 0.53 0.50 0.52 0.25 0.11 0.13 0.08 0.04 0.04 0.06 0.31 0.33 0.19 0.12 0.16 0.14
2.60 2.46 3.18 4.31 3.80 2.88 1.90 1.41 1.43 1.64 1.32 1.21 1.52 1.63 1.55 1.37 0.98 0.50 0.22 0.12 0.08 0.08 0.13 0.12 0.05 0.10 0.32 0.14 0.09 0.20 0.15 0.06 0.09 0.07 0.08 0.27 0.57 0.52 0.29 0.26 0.17 0.12 0.13
6.22 5.28 5.61 6.69 5.82 4.58 3.52 2.31 2.32 2.14 1.88 1.89 1.58 2.03 2.42 1.11 1.00 0.71 0.34 0.18 0.10 0.09 0.18 0.14 0.03 0.01 0.14 0.08 0.02 0.03 0.05 0.07 0.10 0.09 0.24 0.24 0.29 0.19 0.29 0.30 0.18 0.10 0.10
4.44 5.85 6.89 7.53 8.33 7.50 4.24 3.28 3.30 3.37 2.92 2.39 2.14 1.92 2.11 1.44 1.22 0.92 0.36 0.23 0.15 0.08 0.14 0.16 0.05 0.01 0.01 0.01 0.01 0.02 0.03 0.03 0.14 0.21 0.21 0.15 0.12 0.17 0.38 0.33 0.21 0.15 0.10
2.47 3.24 3.59 3.72 7.19 11.78 7.98 5.02 4.13 3.79 3.59 2.59 2.38 1.74 1.20 1.42 1.48 1.36 0.54 0.23 0.14 0.09 0.09 0.15 0.05 0.06 0.03 0.01 0.00 0.00 0.00 0.00 0.01 0.06 0.07 0.11 0.10 0.14 0.35 0.42 0.31 0.21 0.14
2.72 2.37 1.88 2.59 3.36 5.95 9.66 6.51 5.16 4.19 2.77 2.60 2.22 1.61 1.07 0.87 0.84 0.80 0.47 0.28 0.15 0.04 0.03 0.03 0.02 0.03 0.01 0.00 0.00 0.00 0.00 0.00 0.00 0.00 0.00 0.01 0.02 0.04 0.12 0.20 0.20 0.27 0.26
1.93 2.26 1.84 1.27 1.32 1.96 4.35 4.17 4.50 4.55 2.69 2.15 1.77 1.26 1.07 0.85 0.49 0.37 0.26 0.20 0.22 0.04 0.00 0.01 0.00 0.00 0.00 0.00 0.00 0.00 0.00 0.00 0.00 0.00 0.00 0.01 0.02 0.02 0.05 0.16 0.15 0.17 0.22
1.33 1.64 1.27 1.16 0.93 1.08 2.16 1.84 2.29 3.06 3.33 2.26 1.92 1.17 1.14 0.75 0.39 0.37 0.20 0.20 0.32 0.18 0.02 0.03 0.00 0.00 0.00 0.00 0.00 0.00 0.00 0.00 0.00 0.00 0.00 0.00 0.02 0.03 0.07 0.11 0.16 0.20 0.19
0.70 0.89 0.91 0.51 0.66 0.99 0.96 1.13 1.41 1.42 3.05 2.81 2.15 1.56 1.23 0.78 0.30 0.24 0.13 0.06 0.06 0.14 0.05 0.02 0.00 0.00 0.00 0.00 0.00 0.01 0.00 0.00 0.00 0.00 0.00 0.00 0.00 0.01 0.03 0.06 0.13 0.22 0.25
0.73 0.82 0.81 0.67 0.64 0.58 0.38 0.48 1.14 0.95 1.72 2.76 2.17 1.68 1.21 0.63 0.26 0.11 0.05 0.04 0.02 0.03 0.04 0.03 0.00 0.00 0.00 0.00 0.00 0.00 0.00 0.00 0.00 0.00 0.00 0.00 0.00 0.00 0.00 0.02 0.04 0.15 0.29
0.72 0.90 0.66 0.63 0.65 0.53 0.38 0.37 0.83 0.85 0.97 2.07 1.68 1.17 1.25 0.50 0.14 0.13 0.10 0.03 0.03 0.04 0.03 0.01 0.00 0.00 0.00 0.00 0.00 0.00 0.00 0.00 0.00 0.00 0.00 0.00 0.00 0.00 0.00 0.00 0.01 0.05 0.17
0.53 0.60 0.47 0.69 0.73 0.69 0.47 0.54 0.73 0.83 0.85 1.31 1.11 1.09 1.27 0.56 0.27 0.18 0.13 0.09 0.02 0.01 0.01 0.00 0.00 0.00 0.00 0.00 0.00 0.00 0.00 0.00 0.00 0.00 0.00 0.00 0.00 0.00 0.00 0.00 0.00 0.00 0.02
0.20 0.44 0.64 0.86 1.18 1.11 0.46 0.58 0.67 0.72 0.78 1.02 0.86 0.98 1.37 0.68 0.33 0.15 0.08 0.06 0.05 0.02 0.00 0.00 0.00 0.00 0.00 0.00 0.00 0.00 0.00 0.00 0.00 0.00 0.00 0.01 0.02 0.01 0.01 0.01 0.01 0.01 0.01
0.18 0.30 0.59 0.92 1.09 1.33 1.20 1.45 1.21 0.84 0.74 0.81 0.67 0.81 1.43 0.93 0.59 0.17 0.06 0.01 0.02 0.03 0.00 0.00 0.00 0.00 0.00 0.00 0.00 0.00 0.00 0.00 0.00 0.00 0.00 0.00 0.01 0.02 0.04 0.06 0.05 0.03 0.03
0.07 0.29 0.67 1.07 1.58 2.74 1.92 1.10 0.62 0.60 0.64 0.68 0.75 0.72 1.30 0.82 0.71 0.60 0.19 0.04 0.06 0.03 0.00 0.00 0.00 0.00 0.00 0.00 0.00 0.00 0.00 0.00 0.00 0.00 0.00 0.00 0.01 0.01 0.01 0.03 0.05 0.07 0.05
0.16 0.49 0.75 0.83 0.94 0.82 0.38 0.34 0.35 0.47 0.65 0.74 0.85 0.62 1.17 0.96 0.55 0.67 0.60 0.16 0.07 0.02 0.00 0.00 0.00 0.00 0.00 0.00 0.00 0.00 0.00 0.00 0.00 0.00 0.00 0.00 0.01 0.01 0.03 0.04 0.05 0.06 0.10
0.33 0.37 0.23 0.09 0.06 0.10 0.11 0.15 0.16 0.20 0.42 0.48 1.07 0.76 0.79 0.87 0.32 0.32 0.28 0.20 0.14 0.03 0.01 0.00 0.00 0.00 0.00 0.00 0.00 0.01 0.00 0.00 0.00 0.00 0.00 0.01 0.01 0.03 0.06 0.10 0.09 0.11 0.15
0.04 0.10 0.05 0.04 0.03 0.03 0.05 0.09 0.16 0.11 0.18 0.33 1.02 1.09 0.74 0.71 0.45 0.23 0.16 0.11 0.15 0.04 0.01 0.00 0.00 0.00 0.00 0.00 0.00 0.01 0.05 0.06 0.05 0.00 0.00 0.03 0.03 0.02 0.01 0.03 0.08 0.13 0.11
0.06 0.03 0.06 0.10 0.05 0.05 0.02 0.04 0.06 0.09 0.11 0.19 0.42 0.66 0.75 0.56 0.51 0.30 0.21 0.12 0.11 0.04 0.03 0.02 0.02 0.02 0.02 0.02 0.01 0.00 0.03 0.05 0.15 0.13 0.04 0.00 0.01 0.03 0.04 0.08 0.10 0.14 0.17
0.04 0.06 0.10 0.09 0.11 0.12 0.07 0.08 0.09 0.09 0.17 0.19 0.30 0.61 0.68 0.71 0.62 0.50 0.33 0.24 0.13 0.11 0.11 0.10 0.06 0.08 0.09 0.08 0.08 0.05 0.04 0.02 0.04 0.10 0.12 0.06 0.05 0.03 0.02 0.04 0.06 0.09 0.16
0.03 0.03 0.07 0.12 0.16 0.19 0.18 0.14 0.18 0.23 0.17 0.14 0.23 0.64 0.74 0.73 0.74 0.62 0.46 0.35 0.21 0.19 0.22 0.25 0.23 0.16 0.11 0.11 0.14 0.19 0.22 0.25 0.27 0.35 0.34 0.20 0.18 0.12 0.04 0.04 0.04 0.04 0.08

GFSSE_prec_precacc_114.txt.gz
Total_Precipitation_Accumulation
0.38 0.30 0.26 0.09 0.09 0.07 0.08 0.04 0.02 0.03 0.03 0.04 0.04 0.05 0.11 0.14 0.11 0.10 0.10 0.07 0.06 0.04 0.04 0.06 0.09 0.08 0.07 0.08 0.07 0.08 0.09 0.08 0.11 0.16 0.33 0.30 0.15 0.15 0.15 0.21 0.15 0.25 0.45
0.87 0.59 0.65 0.26 0.08 0.05 0.07 0.07 0.10 0.04 0.05 0.08 0.04 0.06 0.11 0.14 0.06 0.06 0.08 0.17 0.17 0.14 0.08 0.05 0.08 0.15 0.17 0.15 0.14 0.12 0.10 0.06 0.06 0.08 0.19 0.32 0.24 0.14 0.11 0.10 0.14 0.18 0.22
1.19 1.00 0.80 0.68 0.22 0.14 0.32 0.11 0.04 0.04 0.04 0.02 0.02 0.03 0.07 0.06 0.01 0.05 0.18 0.18 0.20 0.12 0.07 0.08 0.17 0.36 0.32 0.26 0.18 0.16 0.09 0.07 0.05 0.06 0.11 0.12 0.28 0.30 0.15 0.11 0.16 0.24 0.19
0.95 1.22 0.91 1.05 1.11 0.52 0.42 0.21 0.14 0.07 0.02 0.01 0.11 0.11 0.22 0.06 0.07 0.12 0.11 0.12 0.09 0.07 0.06 0.09 0.19 0.99 0.74 0.63 0.34 0.15 0.07 0.06 0.04 0.03 0.03 0.09 0.28 0.55 0.35 0.14 0.17 0.18 0.17
0.93 0.58 0.94 1.10 0.97 0.77 0.45 0.26 0.40 0.46 0.32 0.07 0.07 0.16 0.19 0.20 0.24 0.27 0.37 0.08 0.12 0.14 0.17 0.20 0.17 0.70 1.05 0.79 0.45 0.20 0.11 0.10 0.05 0.04 0.04 0.04 0.16 0.68 0.61 0.24 0.18 0.18 0.16
1.21 1.41 2.04 1.78 1.51 0.84 0.62 0.82 1.07 1.06 0.81 0.54 0.43 0.62 0.78 1.04 1.07 0.88 0.64 0.26 0.16 0.23 0.20 0.20 0.12 0.18 0.27 0.53 0.50 0.52 0.25 0.11 0.13 0.09 0.05 0.05 0.07 0.33 0.33 0.20 0.12 0.17 0.14
2.60 2.46 3.18 4.31 3.80 2.88 1.90 1.41 1.43 1.64 1.33 1.35 1.72 1.71 1.67 1.59 1.96 1.11 0.55 0.49 0.16 0.13 0.15 0.17 0.08 0.11 0.34 0.16 0.09 0.20 0.15 0.06 0.09 0.08 0.08 0.29 0.58 0.52 0.29 0.26 0.17 0.12 0.13
6.22 5.28 5.61 6.69 5.82 4.58 3.52 2.31 2.32 2.14 1.88 1.91 1.65 2.08 2.42 1.12 1.02 0.72 0.38 0.23 0.13 0.09 0.19 0.17 0.06 0.04 0.20 0.12 0.03 0.03 0.05 0.07 0.10 0.11 0.27 0.26 0.29 0.19 0.29 0.30 0.18 0.10 0.10
4.44 5.85 6.89 7.53 8.33 7.50 4.24 3.28 3.30 3.37 2.92 2.39 2.15 1.94 2.11 1.44 1.22 0.94 0.40 0.23 0.15 0.08 0.14 0.19 0.10 0.11 0.06 0.03 0.01 0.02 0.03 0.03 0.16 0.23 0.26 0.17 0.12 0.17 0.38 0.33 0.21 0.15 0.10
2.47 3.24 3.59 3.72 7.19 11.78 7.98 5.02 4.13 3.79 3.59 2.59 2.38 1.74 1.23 1.43 1.49 1.36 0.54 0.23 0.14 0.09 0.09 0.16 0.10 0.13 0.11 0.05 0.01 0.00 0.00 0.00 0.05 0.08 0.09 0.12 0.10 0.14 0.35 0.42 0.31 0.21 0.14
2.72 2.37 1.88 2.59 3.36 5.96 9.66 6.51 5.17 4.19 2.77 2.60 2.22 1.64 1.11 0.92 0.87 0.81 0.47 0.28 0.15 0.04 0.03 0.07 0.06 0.08 0.06 0.04 0.03 0.00 0.01 0.03 0.04 0.02 0.01 0.01 0.02 0.04 0.12 0.20 0.20 0.27 0.27
1.93 2.26 1.84 1.27 1.32 1.96 4.35 4.17 4.51 4.56 2.70 2.15 1.78 1.27 1.08 0.87 0.49 0.37 0.26 0.20 0.23 0.05 0.01 0.06 0.13 0.07 0.09 0.02 0.02 0.01 0.03 0.02 0.01 0.01 0.00 0.01 0.02 0.02 0.05 0.16 0.16 0.17 0.22
1.33 1.64 1.27 1.16 0.93 1.08 2.16 1.84 2.30 3.07 3.34 2.28 1.95 1.20 1.16 0.77 0.40 0.38 0.20 0.22 0.41 0.25 0.05 0.06 0.05 0.03 0.04 0.02 0.00 0.00 0.00 0.00 0.00 0.00 0.00 0.01 0.03 0.03 0.07 0.11 0.17 0.20 0.19
0.70 0.89 0.91 0.51 0.66 0.99 0.96 1.13 1.41 1.43 3.06 2.82 2.17 1.59 1.25 0.79 0.31 0.25 0.14 0.07 0.13 0.30 0.13 0.06 0.03 0.03 0.03 0.01 0.00 0.01 0.00 0.00 0.00 0.00 0.00 0.00 0.01 0.01 0.03 0.06 0.14 0.22 0.26
0.73 0.82 0.81 0.67 0.64 0.58 0.38 0.48 1.15 0.95 1.73 2.78 2.24 1.73 1.24 0.69 0.28 0.12 0.05 0.05 0.06 0.15 0.17 0.11 0.04 0.02 0.01 0.00 0.00 0.00 0.00 0.00 0.00 0.00 0.00 0.00 0.01 0.01 0.01 0.02 0.05 0.15 0.29
0.72 0.90 0.66 0.63 0.65 0.53 0.38 0.37 0.83 0.86 0.98 2.09 1.72 1.20 1.27 0.57 0.19 0.15 0.13 0.04 0.08 0.08 0.11 0.05 0.03 0.01 0.00 0.00 0.00 0.00 0.00 0.00 0.00 0.00 0.00 0.00 0.00 0.01 0.01 0.01 0.01 0.06 0.17
0.53 0.60 0.47 0.69 0.73 0.69 0.48 0.54 0.73 0.83 0.85 1.32 1.12 1.11 1.29 0.59 0.32 0.21 0.16 0.13 0.04 0.04 0.04 0.03 0.02 0.02 0.00 0.00 0.00 0.00 0.00 0.00 0.00 0.00 0.00 0.00 0.00 0.00 0.01 0.01 0.00 0.00 0.02
0.20 0.44 0.64 0.86 1.18 1.11 0.46 0.58 0.67 0.72 0.79 1.03 0.87 0.99 1.38 0.69 0.34 0.17 0.12 0.11 0.08 0.02 0.01 0.01 0.01 0.01 0.00 0.00 0.00 0.00 0.00 0.00 0.00 0.00 0.00 0.01 0.02 0.01 0.02 0.02 0.01 0.01 0.01
0.18 0.30 0.59 0.92 1.09 1.33 1.20 1.45 1.21 0.85 0.74 0.82 0.67 0.82 1.46 0.94 0.62 0.19 0.10 0.08 0.04 0.05 0.01 0.00 0.01 0.01 0.00 0.00 0.00 0.00 0.00 0.00 0.00 0.00 0.00 0.01 0.01 0.02 0.04 0.06 0.05 0.03 0.03
0.07 0.29 0.67 1.07 1.58 2.74 1.92 1.10 0.62 0.60 0.64 0.69 0.75 0.73 1.31 0.84 0.74 0.73 0.33 0.15 0.08 0.05 0.02 0.00 0.01 0.01 0.00 0.00 0.00 0.00 0.00 0.00 0.00 0.00 0.00 0.00 0.01 0.01 0.01 0.03 0.05 0.07 0.05
0.16 0.49 0.75 0.83 0.94 0.82 0.38 0.34 0.35 0.47 0.66 0.75 0.86 0.63 1.17 0.96 0.61 0.85 0.93 0.34 0.11 0.04 0.01 0.00 0.01 0.01 0.00 0.00 0.00 0.01 0.00 0.00 0.00 0.00 0.00 0.00 0.01 0.01 0.03 0.04 0.05 0.06 0.10
0.33 0.37 0.23 0.09 0.06 0.10 0.11 0.15 0.16 0.20 0.42 0.49 1.08 0.76 0.80 0.88 0.33 0.40 0.65 0.56 0.29 0.05 0.02 0.00 0.00 0.01 0.00 0.00 0.01 0.01 0.01 0.01 0.00 0.00 0.00 0.01 0.01 0.03 0.06 0.10 0.09 0.11 0.15
0.04 0.10 0.05 0.04 0.03 0.03 0.05 0.09 0.17 0.11 0.19 0.34 1.03 1.11 0.75 0.71 0.45 0.25 0.34 0.37 0.39 0.15 0.03 0.00 0.00 0.01 0.00 0.00 0.00 0.01 0.05 0.06 0.05 0.00 0.00 0.03 0.03 0.02 0.01 0.03 0.08 0.13 0.11
0.06 0.03 0.06 0.10 0.05 0.05 0.02 0.04 0.06 0.09 0.11 0.19 0.43 0.67 0.76 0.57 0.52 0.33 0.30 0.33 0.39 0.20 0.08 0.03 0.02 0.02 0.02 0.02 0.01 0.00 0.03 0.05 0.15 0.13 0.04 0.00 0.01 0.03 0.04 0.08 0.10 0.14 0.17
0.04 0.06 0.10 0.09 0.11 0.12 0.07 0.08 0.09 0.10 0.18 0.20 0.31 0.61 0.69 0.71 0.63 0.60 0.52 0.52 0.32 0.36 0.18 0.13 0.07 0.08 0.09 0.08 0.08 0.05 0.04 0.02 0.04 0.10 0.12 0.06 0.05 0.03 0.02 0.04 0.06 0.09 0.16
0.03 0.03 0.08 0.12 0.16 0.19 0.18 0.14 0.18 0.23 0.17 0.15 0.23 0.65 0.75 0.74 0.75 0.66 0.65 0.69 0.47 0.31 0.41 0.28 0.25 0.17 0.11 0.11 0.14 0.19 0.22 0.25 0.27 0.35 0.34 0.20 0.18 0.12 0.04 0.04 0.04 0.04 0.08

GFSSE_prec_precacc_117.txt.gz
Total_Precipitation_Accumulation
0.38 0.30 0.26 0.09 0.09 0.07 0.08 0.04 0.02 0.03 0.03 0.04 0.04 0.05 0.11 0.14 0.11 0.10 0.10 0.07 0.06 0.05 0.05 0.06 0.09 0.08 0.08 0.09 0.08 0.08 0.10 0.08 0.11 0.18 0.35 0.31 0.16 0.16 0.19 0.28 0.18 0.25 0.47
0.87 0.59 0.65 0.26 0.08 0.05 0.07 0.07 0.10 0.04 0.05 0.08 0.04 0.06 0.11 0.15 0.09 0.07 0.08 0.18 0.20 0.16 0.09 0.05 0.08 0.15 0.17 0.17 0.17 0.12 0.10 0.06 0.06 0.08 0.19 0.32 0.25 0.14 0.12 0.15 0.16 0.19 0.24
1.19 1.00 0.80 0.68 0.22 0.14 0.32 0.11 0.04 0.04 0.04 0.02 0.02 0.03 0.12 0.15 0.08 0.06 0.19 0.18 0.28 0.20 0.07 0.08 0.19 0.37 0.36 0.30 0.19 0.16 0.09 0.07 0.05 0.08 0.15 0.14 0.30 0.31 0.16 0.13 0.17 0.25 0.20
0.95 1.22 0.91 1.05 1.11 0.52 0.42 0.21 0.14 0.07 0.02 0.01 0.11 0.13 0.28 0.12 0.13 0.44 0.37 0.22 0.13 0.10 0.06 0.10 0.22 1.01 0.75 0.64 0.34 0.15 0.07 0.06 0.05 0.06 0.06 0.12 0.29 0.56 0.35 0.14 0.17 0.19 0.19
0.93 0.58 0.94 1.10 0.97 0.77 0.45 0.26 0.40 0.46 0.32 0.07 0.07 0.25 0.32 0.43 0.97 1.27 1.11 0.54 0.30 0.17 0.20 0.22 0.20 0.72 1.05 0.79 0.45 0.20 0.11 0.10 0.07 0.10 0.05 0.05 0.16 0.70 0.61 0.25 0.18 0.21 0.18
1.21 1.41 2.04 1.78 1.51 0.84 0.62 0.82 1.07 1.06 0.81 0.54 0.47 0.66 0.88 1.36 2.08 1.84 1.12 0.98 0.79 0.56 0.35 0.32 0.15 0.19 0.27 0.53 0.50 0.52 0.25 0.11 0.14 0.10 0.06 0.06 0.09 0.36 0.34 0.21 0.13 0.17 0.15
2.60 2.46 3.18 4.31 3.80 2.88 1.90 1.41 1.43 1.64 1.34 1.35 1.75 1.77 1.81 1.77 2.41 1.37 0.64 0.97 1.41 0.48 0.20 0.20 0.09 0.11 0.37 0.17 0.09 0.20 0.15 0.07 0.10 0.08 0.11 0.33 0.60 0.53 0.29 0.26 0.17 0.12 0.13
6.22 5.28 5.61 6.69 5.82 4.58 3.52 2.31 2.32 2.14 1.88 1.91 1.65 2.11 2.43 1.28 1.09 0.74 0.38 0.37 0.50 0.29 0.25 0.18 0.06 0.05 0.21 0.13 0.03 0.03 0.05 0.10 0.13 0.13 0.31 0.29 0.30 0.19 0.29 0.30 0.18 0.10 0.10
4.44 5.85 6.89 7.53 8.33 7.50 4.24 3.28 3.30 3.37 2.92 2.39 2.15 1.94 2.12 1.55 1.22 0.94 0.40 0.27 0.21 0.13 0.15 0.19 0.11 0.11 0.08 0.06 0.03 0.02 0.04 0.05 0.17 0.24 0.30 0.19 0.12 0.17 0.38 0.33 0.21 0.15 0.10
2.47 3.24 3.59 3.72 7.19 11.78 7.98 5.02 4.13 3.79 3.59 2.59 2.38 1.75 1.29 1.52 1.49 1.36 0.54 0.25 0.18 0.11 0.09 0.18 0.17 0.19 0.12 0.07 0.02 0.00 0.00 0.04 0.07 0.12 0.13 0.14 0.10 0.14 0.35 0.42 0.31 0.21 0.14
2.72 2.37 1.88 2.59 3.36 5.96 9.66 6.51 5.17 4.19 2.77 2.60 2.23 1.68 1.18 0.94 0.88 0.82 0.47 0.29 0.16 0.08 0.11 0.19 0.19 0.17 0.10 0.09 0.05 0.01 0.02 0.08 0.09 0.07 0.04 0.01 0.02 0.04 0.12 0.20 0.20 0.27 0.27
1.93 2.26 1.84 1.27 1.32 1.96 4.35 4.17 4.51 4.56 2.70 2.16 1.78 1.29 1.12 0.93 0.53 0.39 0.27 0.22 0.25 0.12 0.15 0.19 0.22 0.17 0.19 0.05 0.04 0.05 0.08 0.06 0.03 0.04 0.02 0.01 0.02 0.02 0.05 0.16 0.16 0.17 0.22
1.33 1.64 1.27 1.16 0.93 1.08 2.16 1.84 2.30 3.08 3.35 2.28 1.97 1.22 1.21 0.83 0.50 0.42 0.23 0.24 0.49 0.33 0.12 0.14 0.11 0.10 0.12 0.06 0.03 0.06 0.04 0.00 0.00 0.00 0.00 0.01 0.03 0.03 0.07 0.12 0.17 0.20 0.19
0.70 0.89 0.91 0.51 0.66 0.99 0.96 1.13 1.41 1.43 3.07 2.83 2.18 1.63 1.32 0.84 0.36 0.27 0.16 0.13 0.20 0.37 0.17 0.08 0.07 0.11 0.10 0.06 0.04 0.04 0.00 0.00 0.00 0.00 0.00 0.01 0.01 0.01 0.03 0.07 0.14 0.22 0.26
0.73 0.82 0.81 0.67 0.64 0.58 0.38 0.48 1.15 0.95 1.73 2.79 2.25 1.78 1.29 0.76 0.33 0.16 0.10 0.12 0.13 0.22 0.29 0.22 0.10 0.12 0.09 0.06 0.01 0.00 0.00 0.00 0.00 0.00 0.00 0.00 0.01 0.01 0.01 0.02 0.05 0.15 0.29
0.72 0.90 0.66 0.63 0.65 0.53 0.38 0.37 0.83 0.86 0.98 2.09 1.72 1.21 1.32 0.63 0.26 0.21 0.19 0.11 0.15 0.15 0.18 0.31 0.21 0.07 0.06 0.01 0.00 0.00 0.00 0.00 0.00 0.00 0.00 0.00 0.00 0.01 0.01 0.02 0.02 0.06 0.17
0.53 0.60 0.47 0.69 0.73 0.69 0.48 0.54 0.73 0.83 0.85 1.33 1.12 1.12 1.34 0.68 0.41 0.29 0.22 0.19 0.10 0.12 0.14 0.16 0.22 0.20 0.11 0.03 0.00 0.00 0.00 0.00 0.00 0.00 0.00 0.00 0.00 0.01 0.01 0.02 0.02 0.01 0.02
0.20 0.44 0.64 0.86 1.18 1.11 0.46 0.58 0.67 0.72 0.79 1.03 0.88 1.00 1.40 0.73 0.44 0.27 0.19 0.18 0.15 0.09 0.07 0.05 0.05 0.09 0.09 0.03 0.01 0.01 0.00 0.00 0.00 0.00 0.00 0.01 0.02 0.01 0.02 0.02 0.02 0.02 0.01
0.18 0.30 0.59 0.92 1.09 1.33 1.20 1.45 1.21 0.85 0.75 0.82 0.68 0.83 1.47 0.95 0.66 0.27 0.16 0.15 0.13 0.11 0.05 0.01 0.03 0.03 0.02 0.01 0.01 0.01 0.00 0.00 0.00 0.00 0.00 0.01 0.01 0.02 0.04 0.06 0.05 0.03 0.03
0.07 0.29 0.67 1.07 1.58 2.74 1.92 1.10 0.62 0.60 0.64 0.69 0.76 0.73 1.32 0.86 0.76 0.77 0.37 0.23 0.17 0.11 0.05 0.02 0.04 0.05 0.01 0.00 0.00 0.02 0.00 0.00 0.00 0.00 0.00 0.00 0.01 0.01 0.01 0.03 0.05 0.07 0.05
0.16 0.49 0.75 0.83 0.94 0.82 0.38 0.34 0.35 0.47 0.66 0.75 0.87 0.63 1.18 0.97 0.62 0.87 0.96 0.40 0.28 0.13 0.05 0.03 0.06 0.05 0.05 0.01 0.03 0.05 0.02 0.00 0.00 0.00 0.00 0.00 0.01 0.01 0.03 0.04 0.05 0.06 0.10
0.33 0.37 0.23 0.09 0.06 0.10 0.11 0.15 0.16 0.20 0.42 0.49 1.08 0.77 0.81 0.88 0.34 0.41 0.67 0.59 0.39 0.16 0.10 0.05 0.07 0.05 0.05 0.03 0.02 0.02 0.02 0.02 0.01 0.00 0.00 0.01 0.01 0.03 0.06 0.10 0.09 0.11 0.15
0.04 0.10 0.05 0.04 0.03 0.03 0.06 0.09 0.17 0.11 0.19 0.35 1.04 1.12 0.76 0.72 0.46 0.25 0.35 0.44 0.46 0.31 0.18 0.05 0.03 0.05 0.04 0.04 0.02 0.01 0.05 0.07 0.05 0.00 0.00 0.03 0.03 0.02 0.01 0.03 0.08 0.13 0.11
0.06 0.03 0.06 0.10 0.05 0.05 0.03 0.04 0.06 0.09 0.11 0.19 0.43 0.68 0.77 0.59 0.53 0.33 0.30 0.38 0.51 0.36 0.23 0.11 0.06 0.07 0.07 0.03 0.03 0.01 0.03 0.05 0.15 0.13 0.04 0.00 0.01 0.03 0.04 0.08 0.10 0.14 0.17
0.04 0.06 0.10 0.09 0.11 0.12 0.07 0.08 0.09 0.10 0.18 0.20 0.31 0.62 0.70 0.73 0.66 0.61 0.53 0.55 0.47 0.60 0.36 0.21 0.14 0.13 0.12 0.10 0.08 0.06 0.04 0.02 0.04 0.10 0.12 0.06 0.05 0.03 0.02 0.04 0.06 0.09 0.16
0.03 0.03 0.08 0.12 0.16 0.19 0.18 0.14 0.18 0.23 0.17 0.15 0.24 0.65 0.76 0.76 0.77 0.68 0.67 0.75 0.64 0.52 0.67 0.40 0.34 0.22 0.12 0.12 0.16 0.19 0.22 0.25 0.27 0.35 0.34 0.20 0.18 0.12 0.04 0.04 0.04 0.04 0.08

GFSSE_prec_precacc_123.txt.gz
Total_Precipitation_Accumulation
0.38 0.30 0.26 0.09 0.09 0.07 0.08 0.04 0.02 0.03 0.03 0.04 0.04 0.05 0.11 0.14 0.11 0.10 0.10 0.07 0.07 0.08 0.10 0.08 0.13 0.16 0.18 0.20 0.16 0.14 0.17 0.19 0.19 0.28 0.45 0.32 0.16 0.17 0.22 0.30 0.20 0.25 0.48
0.87 0.59 0.65 0.26 0.08 0.05 0.07 0.07 0.10 0.04 0.05 0.08 0.04 0.06 0.12 0.16 0.12 0.10 0.10 0.18 0.21 0.24 0.18 0.10 0.16 0.27 0.26 0.25 0.21 0.13 0.10 0.08 0.11 0.16 0.25 0.32 0.25 0.15 0.15 0.18 0.17 0.20 0.25
1.19 1.00 0.80 0.68 0.22 0.14 0.32 0.11 0.04 0.04 0.04 0.02 0.02 0.03 0.15 0.19 0.19 0.26 0.41 0.37 0.44 0.40 0.17 0.11 0.24 0.42 0.38 0.31 0.20 0.17 0.09 0.08 0.09 0.12 0.17 0.14 0.32 0.38 0.17 0.17 0.18 0.27 0.22
0.95 1.22 0.91 1.05 1.11 0.52 0.42 0.21 0.14 0.07 0.02 0.01 0.11 0.13 0.31 0.23 0.35 0.85 1.10 1.01 0.82 0.69 0.34 0.18 0.25 1.02 0.77 0.65 0.34 0.16 0.09 0.07 0.08 0.09 0.08 0.13 0.29 0.62 0.37 0.15 0.19 0.21 0.20
0.93 0.58 0.94 1.10 0.97 0.77 0.45 0.26 0.40 0.46 0.32 0.07 0.08 0.27 0.43 0.63 1.35 2.27 2.56 1.55 1.63 1.43 0.88 0.52 0.27 0.73 1.07 0.79 0.46 0.23 0.14 0.13 0.09 0.13 0.06 0.06 0.17 0.72 0.61 0.26 0.20 0.22 0.19
1.21 1.41 2.04 1.78 1.51 0.84 0.62 0.82 1.07 1.06 0.81 0.56 0.48 0.69 0.96 1.44 2.35 2.37 1.55 1.31 1.69 2.88 1.40 0.92 0.39 0.23 0.27 0.53 0.50 0.53 0.27 0.16 0.17 0.15 0.08 0.07 0.09 0.37 0.34 0.21 0.13 0.17 0.15
2.60 2.46 3.18 4.31 3.80 2.88 1.90 1.41 1.43 1.64 1.34 1.36 1.76 1.81 1.84 1.80 2.47 1.39 0.66 1.01 2.34 2.16 0.77 0.66 0.35 0.12 0.37 0.17 0.09 0.22 0.24 0.19 0.17 0.10 0.12 0.38 0.62 0.60 0.30 0.26 0.17 0.12 0.14
6.22 5.28 5.61 6.69 5.82 4.58 3.52 2.31 2.32 2.14 1.88 1.91 1.66 2.13 2.45 1.33 1.09 0.74 0.38 0.38 0.53 0.44 0.42 0.32 0.17 0.10 0.22 0.14 0.04 0.07 0.18 0.24 0.19 0.14 0.35 0.32 0.33 0.23 0.30 0.30 0.18 0.10 0.10
4.44 5.85 6.89 7.53 8.33 7.50 4.24 3.28 3.30 3.37 2.92 2.39 2.16 1.95 2.16 1.61 1.24 0.94 0.40 0.27 0.21 0.14 0.21 0.28 0.24 0.25 0.16 0.13 0.11 0.06 0.09 0.09 0.23 0.26 0.31 0.19 0.17 0.20 0.39 0.33 0.21 0.15 0.10
2.47 3.24 3.59 3.72 7.19 11.78 7.98 5.02 4.13 3.79 3.59 2.59 2.39 1.75 1.31 1.54 1.53 1.36 0.54 0.25 0.20 0.16 0.22 0.36 0.50 0.59 0.33 0.26 0.15 0.05 0.02 0.12 0.15 0.16 0.16 0.15 0.11 0.14 0.36 0.42 0.31 0.21 0.14
2.72 2.37 1.88 2.59 3.36 5.96 9.66 6.51 5.17 4.19 2.77 2.60 2.23 1.68 1.18 0.95 0.88 0.82 0.47 0.29 0.24 0.26 0.35 0.42 0.37 0.50 0.55 0.30 0.15 0.16 0.09 0.13 0.14 0.09 0.05 0.01 0.02 0.04 0.12 0.20 0.20 0.27 0.27
1.93 2.26 1.84 1.27 1.32 1.96 4.35 4.17 4.51 4.56 2.70 2.16 1.78 1.29 1.12 0.94 0.55 0.40 0.28 0.24 0.40 0.34 0.32 0.25 0.28 0.36 0.47 0.31 0.16 0.12 0.11 0.08 0.07 0.05 0.02 0.01 0.02 0.02 0.06 0.16 0.16 0.17 0.22
1.33 1.64 1.27 1.16 0.93 1.08 2.16 1.84 2.30 3.08 3.35 2.28 1.97 1.23 1.22 0.84 0.52 0.49 0.29 0.31 0.62 0.40 0.14 0.14 0.12 0.16 0.24 0.28 0.22 0.09 0.05 0.02 0.02 0.01 0.00 0.01 0.03 0.03 0.08 0.12 0.17 0.20 0.19
0.70 0.89 0.91 0.51 0.66 0.99 0.96 1.13 1.41 1.43 3.07 2.83 2.18 1.63 1.33 0.85 0.37 0.32 0.23 0.23 0.21 0.38 0.18 0.08 0.11 0.16 0.20 0.21 0.19 0.10 0.09 0.10 0.04 0.01 0.00 0.01 0.02 0.02 0.04 0.08 0.14 0.22 0.26
0.73 0.82 0.81 0.67 0.64 0.58 0.38 0.48 1.15 0.95 1.73 2.79 2.25 1.78 1.30 0.78 0.34 0.19 0.17 0.21 0.15 0.23 0.31 0.26 0.17 0.19 0.20 0.19 0.11 0.08 0.07 0.10 0.03 0.00 0.00 0.00 0.01 0.02 0.01 0.03 0.05 0.16 0.29
0.72 0.90 0.66 0.63 0.65 0.53 0.38 0.37 0.83 0.86 0.98 2.09 1.72 1.22 1.32 0.64 0.29 0.24 0.25 0.16 0.21 0.21 0.23 0.40 0.35 0.20 0.16 0.07 0.20 0.11 0.07 0.05 0.01 0.00 0.00 0.00 0.00 0.01 0.02 0.03 0.02 0.07 0.17
0.53 0.60 0.47 0.69 0.73 0.69 0.48 0.55 0.73 0.83 0.85 1.33 1.12 1.12 1.34 0.70 0.46 0.36 0.30 0.25 0.16 0.18 0.16 0.18 0.30 0.48 0.47 0.31 0.11 0.01 0.03 0.00 0.00 0.00 0.00 0.00 0.00 0.01 0.02 0.03 0.02 0.01 0.02
0.20 0.44 0.64 0.86 1.18 1.11 0.46 0.58 0.67 0.72 0.79 1.03 0.88 1.00 1.40 0.74 0.47 0.34 0.29 0.28 0.24 0.16 0.11 0.07 0.07 0.24 0.35 0.28 0.17 0.09 0.03 0.00 0.00 0.00 0.00 0.01 0.02 0.01 0.02 0.03 0.02 0.02 0.01
0.18 0.30 0.59 0.92 1.09 1.33 1.20 1.45 1.21 0.85 0.75 0.82 0.68 0.83 1.47 0.95 0.67 0.31 0.23 0.24 0.21 0.16 0.07 0.02 0.07 0.06 0.14 0.16 0.14 0.06 0.01 0.00 0.00 0.00 0.00 0.01 0.01 0.02 0.04 0.06 0.05 0.03 0.03
0.07 0.29 0.67 1.07 1.58 2.74 1.92 1.10 0.62 0.61 0.64 0.69 0.76 0.74 1.32 0.86 0.76 0.79 0.43 0.31 0.26 0.16 0.08 0.02 0.05 0.06 0.03 0.06 0.13 0.08 0.01 0.00 0.00 0.00 0.00 0.00 0.01 0.01 0.01 0.03 0.05 0.07 0.05
0.16 0.49 0.75 0.83 0.94 0.82 0.38 0.34 0.35 0.47 0.66 0.75 0.87 0.63 1.18 0.98 0.62 0.88 0.98 0.46 0.39 0.18 0.06 0.03 0.06 0.07 0.06 0.04 0.17 0.18 0.09 0.00 0.00 0.00 0.00 0.00 0.01 0.01 0.03 0.04 0.05 0.06 0.10
0.33 0.37 0.23 0.09 0.06 0.10 0.11 0.15 0.17 0.20 0.42 0.49 1.08 0.77 0.81 0.89 0.34 0.41 0.67 0.61 0.43 0.21 0.12 0.08 0.10 0.08 0.07 0.04 0.09 0.09 0.12 0.04 0.01 0.00 0.00 0.01 0.01 0.03 0.06 0.10 0.09 0.11 0.15
0.04 0.10 0.05 0.04 0.03 0.03 0.06 0.09 0.17 0.12 0.20 0.35 1.04 1.12 0.76 0.73 0.47 0.25 0.36 0.45 0.47 0.33 0.22 0.08 0.09 0.10 0.06 0.06 0.06 0.04 0.07 0.09 0.06 0.01 0.00 0.03 0.03 0.02 0.01 0.03 0.08 0.13 0.11
0.06 0.03 0.06 0.10 0.05 0.05 0.03 0.04 0.06 0.09 0.11 0.19 0.43 0.68 0.77 0.59 0.54 0.34 0.31 0.39 0.52 0.37 0.28 0.15 0.15 0.16 0.16 0.12 0.11 0.10 0.04 0.05 0.15 0.14 0.04 0.00 0.01 0.03 0.04 0.08 0.10 0.14 0.17
0.04 0.06 0.10 0.09 0.11 0.12 0.07 0.08 0.09 0.10 0.18 0.20 0.31 0.62 0.71 0.74 0.66 0.62 0.54 0.56 0.48 0.61 0.38 0.28 0.27 0.29 0.21 0.14 0.10 0.10 0.06 0.04 0.04 0.10 0.12 0.06 0.05 0.03 0.02 0.04 0.06 0.09 0.16
0.03 0.03 0.08 0.12 0.16 0.19 0.18 0.14 0.18 0.24 0.17 0.15 0.24 0.65 0.77 0.77 0.78 0.69 0.68 0.76 0.65 0.54 0.71 0.46 0.44 0.41 0.30 0.22 0.22 0.23 0.25 0.28 0.27 0.35 0.34 0.20 0.18 0.12 0.04 0.04 0.04 0.04 0.08